Location: Dodge City Community College Clyde Tombaugh Astronomy Center
(37.7756°N, 100.0412°W)
Time: 02:29:07
(UTC+00:00)

Cosmos 2228 Rocket - Pass Details

Date: 08 July 2022
Orbit: 618 x 651 km, 82.5° (Epoch: 11 August)

Event Time Altitude Azimuth Distance (km) Brightness Sun altitude
Rises 10:41:27 0° 335° (NNW) 2,927 6.7 -8.2°
Reaches altitude 10° 10:44:11 10° 318° (NW) 2,020 5.6 -7.7°
Maximum altitude 10:47:21 19° 273° (W) 1,505 4.6 -7.2°
Drops below altitude 10° 10:50:31 10° 227° (SW) 2,024 5.0 -6.7°
Enters shadow 10:51:16 - 221° (SW) 2,246 5.3 -6.6°
